Location: Silent Lake
(44.9206°N, 78.0708°W)
Time: 05:17:00
(UTC-04:00)

Daily predictions for brighter satellites

Satellite Brightness Start Highest point End
(mag) Time Altitude Azimuth Time Altitude Azimuth Time Altitude Azimuth
Cosmos 2297 Rocket 4.5 00:13:09 10° N 00:15:06 18° N 00:15:06 18° N
Cosmos 2369 Rocket 4.5 00:32:35 19° NNW 00:32:35 19° NNW 00:35:09 10° N
CZ-4C R/B 4.4 00:44:45 22° N 00:44:45 22° N 00:47:23 10° NNE
ATLAS 3B R/B 4.1 01:26:04 35° NNE 01:26:04 35° NNE 01:30:11 10° NNE
Cosmos 1980 Rocket 4.0 02:48:30 28° NNE 02:48:30 28° NNE 02:51:05 10° NNE
CENTAUR R/B 3.6 02:56:30 41° ENE 02:56:30 41° ENE 03:01:01 10° NE
Cosmos 2263 Rocket 4.0 02:53:23 10° NNW 02:56:25 27° NNE 02:56:25 27° NNE
USA 215 4.3 03:00:27 10° E 03:06:28 40° NNE 03:12:29 10° NW
SL-16 R/B 3.1 03:33:25 50° N 03:33:25 50° N 03:37:52 10° NNW
Cosmos 1709 Rocket 4.4 03:27:35 10° N 03:32:40 58° NNE 03:32:40 58° NNE
ARIANE 5 R/B 3.7 03:30:40 10° NNE 03:34:01 39° NE 03:34:01 39° NE
Cosmos 2322 Rocket 2.6 03:58:56 57° N 03:58:56 57° N 04:03:27 10° NNE
IRS-1D 4.4 03:55:50 10° N 03:59:07 42° N 03:59:07 42° N
SL-16 R/B 2.5 04:04:10 59° N 04:04:10 59° N 04:08:55 10° NNE
Cosmos 1777 Rocket 4.3 04:01:35 10° NNW 04:06:50 64° ENE 04:06:50 64° ENE
Resurs 1-4 Rocket 2.6 04:04:08 10° N 04:08:11 52° NNW 04:08:11 52° NNW
SL-8 R/B 4.5 04:10:53 49° NE 04:10:53 49° NE 04:14:51 10° E
CZ-2D R/B 2.5 04:06:15 10° N 04:10:47 57° NNW 04:10:47 57° NNW
COSMOS 2428 4.4 04:09:53 20° SE 04:12:20 27° ESE 04:17:00 10° NE
Okean O Rocket 3.7 04:11:06 10° NE 04:14:39 23° E 04:16:33 18° SE
Cosmos 1844 Rocket 4.2 04:10:49 10° N 04:15:55 35° NE 04:20:58 10° ESE
FALCON 9 R/B 4.5 04:17:39 43° SW 04:21:57 53° S 05:01:59 10° ESE
Lacrosse 4 Rocket4.304:26:45SE04:26:45SE04:17:01NNW
Cosmos 2184 Rocket 4.1 04:18:02 10° N 04:24:15 75° E 04:28:01 26° SSE
Cosmos 1455 Rocket 3.6 04:22:11 10° N 04:26:32 57° E 04:26:43 57° E
Cosmos 2360 Rocket 2.1 04:27:51 68° SSE 04:28:30 77° ESE 04:34:10 10° NNE
Gblst 52 Del rocket 4.1 04:27:41 62° NW 04:28:44 86° NNE 04:34:53 10° ESE
Cosmos 1980 Rocket 3.8 04:30:15 21° NW 04:30:15 21° NW 04:34:15 10° N
ADEOS II 3.6 04:28:30 10° NNE 04:33:15 33° E 04:37:45 11° SSE
Cosmos 1975 Rocket 4.0 04:36:00 37° NNW 04:36:00 37° NNW 04:38:48 10° N
ADEOS Rocket 2.9 04:31:47 10° N 04:37:11 55° WNW 04:37:11 55° WNW
Cosmos 1812 3.8 04:40:01 37° N 04:40:01 37° N 04:42:30 10° N
Cosmos 2263 Rocket 4.2 04:37:23 10° NW 04:38:04 13° NW 04:38:04 13° NW
Cosmos 1340 3.1 04:44:18 61° ENE 04:44:18 61° ENE 04:47:44 10° NNE
ATLAS 5 CENTAUR R/B 3.8 04:38:57 10° NNW 04:44:21 37° NE 04:50:13 10° ESE
CENTAUR R/B 3.5 04:43:40 30° WNW 04:45:26 34° NW 04:51:52 10° NNE
SL-08 ROCKET BODY 4.3 04:42:34 10° NNW 04:48:20 60° W 04:49:21 52° SW
USA 215 3.2 04:42:30 10° SE 04:49:05 90° NE 04:55:41 10° NW
CZ-2D R/B 4.0 04:47:35 10° N 04:51:21 48° NW 04:51:21 48° NW
Cosmos 1536 Rocket 3.7 04:53:01 44° SSE 04:54:22 74° E 04:58:51 10° NNE
COBE Rocket 4.3 04:51:30 10° N 04:56:23 45° WNW 04:56:32 45° WNW
Cosmos 2154 Rocket 4.1 04:52:00 10° N 04:58:14 73° E 05:04:25 10° SSE
Cosmos 2333 Rocket 3.9 04:55:09 10° SSE 04:59:59 30° ESE 05:04:53 10° NE
Cosmos 1743 3.4 04:56:15 10° N 05:00:04 53° ENE 05:03:50 10° SSE
UNKNOWN OBJECT B 4.5 05:01:32 10° N 05:03:13 20° NNW 05:03:13 20° NNW
PSLV R/B 4.3 05:01:10 10° NNE 05:05:26 53° E 05:08:52 15° S
Cosmos 2322 3.7 05:04:46 42° SW 05:06:35 64° WNW 05:12:18 10° NNE
CZ-4B R/B 2.7 05:03:26 10° NNE 05:07:03 73° ESE 05:08:01 46° S
MTI 4.1 05:06:50 26° SSE 05:08:32 68° ENE 05:11:49 10° N
Meteor 1-18 Rocket 4.4 05:12:25 37° SW 05:14:11 51° WNW 05:19:40 10° N
ARIANE 5 R/B 4.0 05:10:47 10° NNW 05:14:22 20° WNW 05:14:22 20° WNW
SL-16 R/B 4.3 05:18:29 13° WNW 05:18:29 13° WNW 05:19:44 10° NW
Cosmos 1610 Rocket 4.5 05:10:41 10° NNW 05:16:52 63° W 05:23:05 10° S
EO 1 Del DPAF 3.1 05:13:58 10° SSE 05:17:49 81° WSW 05:21:43 10° NNW
Meteor 1-12 Rocket 4.4 05:12:36 10° NNW 05:18:02 48° W 05:22:22 16° SSW
Nadezhda 1 Rocket 3.9 05:16:39 24° SSW 05:20:22 62° W 05:26:25 10° N
Cosmos 2181 Rocket 4.5 05:15:33 10° S 05:21:39 62° E 05:27:53 10° NNE
Cosmos 1844 3.7 05:18:40 10° NNW 05:24:29 85° ENE 05:30:11 10° SSE
Cosmos 2333 4.2 05:21:50 20° SSW 05:25:49 88° ESE 05:31:34 10° NNE
Cosmos 1570 Rocket 3.9 05:24:16 27° SW 05:27:08 69° WNW 05:32:22 10° NNE
Cosmos 1898 Rocket 3.8 05:22:22 10° NNW 05:27:36 70° ENE 05:32:45 10° SSE
Meteor 1-13 Rocket 4.1 05:23:49 10° S 05:29:21 88° W 05:35:01 10° N
CZ-4B DEB 4.2 05:26:17 10° NNE 05:31:53 82° WNW 05:37:25 10° SSW
MOS 1 Rocket 3.8 05:27:43 10° N 05:32:06 38° WNW 05:33:36 29° WSW
Okean 1 4.2 05:31:57 30° W 05:32:13 30° WNW 05:35:51 10° NNW
BREEZE M DEB (TANK) 3.7 05:18:20 10° WNW 05:32:25 85° NNE 05:36:25 10° ESE
CZ-4B R/B 3.2 05:26:46 10° NNE 05:32:27 81° WNW 05:38:00 10° SSW
Tiangong 2 2.4 05:34:35 25° S 05:34:35 25° S 05:36:53 10° SE
Cosmos 2341 Rocket 3.9 05:32:42 10° NNW 05:38:58 76° W 05:45:09 10° S
IRS-1C Rocket 4.1 05:36:13 10° N 05:41:25 63° WNW 05:46:22 11° SSW
Cosmos 2322 Rocket 4.0 05:40:45 13° WNW 05:42:51 16° NW 05:46:10 10° N
Cosmos 1238 Rocket 2.2 05:42:01 35° SW 05:42:51 49° W 05:45:47 10° N
ERS-2 2.7 05:39:31 10° NNE 05:43:12 60° ESE 05:46:50 10° S
Cosmos 1975 4.2 05:40:33 10° NW 05:42:58 20° WNW 05:42:58 20° WNW
Cosmos 1980 4.4 05:40:01 10° S 05:45:31 55° ESE 05:51:01 10° NE
IRAS Rocket 4.2 05:40:10 10° NNE 05:45:41 72° WNW 05:51:14 10° SSW
Resurs 1-4 Rocket 4.1 05:46:50 10° NW 05:48:15 11° NW 05:49:17 10° WNW
SL-16 R/B 4.0 05:46:02 12° WNW 05:48:24 15° NW 05:51:38 10° N
Cosmos 858 Rocket 4.5 05:44:32 10° NNW 05:49:52 87° WSW 05:55:07 10° SSE
CZ-2D R/B 4.1 05:48:59 10° NW 05:50:46 12° NW 05:52:07 11° WNW
Okean O Rocket 2.2 05:47:01 10° N 05:51:07 37° WNW 05:54:01 17° SW
CZ-2C R/B 4.0 05:48:19 10° S 05:52:40 42° W 05:56:59 10° NNW
SL-8 R/B 3.7 05:48:52 14° WNW 05:52:59 85° NNE 05:57:46 10° ESE
Cosmos 2219 Rocket 2.1 05:48:52 10° SSW 05:54:28 84° WNW 06:00:06 10° NNE
COSMOS 2428 3.0 05:51:56 16° SW 05:56:17 50° WNW 06:01:50 10° NNE
COSMO-SKYMED 1 3.9 05:52:46 10° SE 05:56:53 44° ENE 06:01:02 10° N
Cosmos 1937 Rocket 3.5 05:51:31 10° NNW 05:56:54 89° E 06:02:11 10° SSE
Meteor 2-9 Rocket 4.1 05:51:49 10° NNW 05:57:32 75° W 06:03:01 10° S
Cosmos 1726 Rocket 4.1 05:54:15 10° N 05:58:40 63° E 06:03:06 10° SSE
Cosmos 1025 Rocket 3.0 05:54:58 10° S 05:59:20 84° W 06:03:46 10° N
Cosmos 1844 Rocket 3.1 05:54:41 10° NW 05:59:50 39° WSW 06:04:57 10° S
NOSS 0 Rocket 4.1 05:55:37 10° SSW 06:01:47 79° ESE 06:07:58 10° NNE
Meteor 1-23 Rocket 4.3 05:56:45 10° S 06:02:35 89° WNW 06:08:23 10° N
Cosmos 1437 3.1 06:00:59 10° S 06:04:14 70° E 06:07:30 10° NNE
Okean-O 2.6 06:00:31 10° NNE 06:04:59 89° ESE 06:09:25 10° SSW
DELTA 2 R/B (1) 4.0 06:02:43 15° WSW 06:07:05 49° S 06:12:25 10° ESE
Cosmos 1892 Rocket 4.0 06:05:44 10° S 06:10:01 64° E 06:14:22 10° NNE
Cosmos 841 Rocket 4.5 06:05:06 10° S 06:10:03 50° ESE 06:15:01 10° NNE
NOAA 6 4.5 06:05:26 10° NNE 06:10:32 65° ESE 06:15:37 10° S
ADEOS II 2.8 06:08:13 10° N 06:12:58 35° WNW 06:17:41 10° SW
USA 116 4.2 06:08:58 10° S 06:13:08 50° W 06:17:52 10° NNW
Cosmos 2360 Rocket 3.7 06:09:38 12° W 06:13:10 21° NW 06:17:22 10° N
Cosmos 2285 Rocket 4.0 06:07:31 10° SSW 06:13:57 75° WNW 06:20:25 10° NNE
CZ-4C R/B 4.0 06:07:36 10° NNW 06:14:10 44° NE 06:21:30 10° ESE
Cosmos 2278 Rocket 2.2 06:09:56 10° NNW 06:15:35 69° WSW 06:21:11 10° SSE
Cosmos 2298 Rocket 4.2 06:11:03 10° NNW 06:16:14 52° WSW 06:21:22 10° S
Cosmos 1959 Rocket 4.4 06:13:45 10° NNW 06:19:50 71° W 06:25:55 10° S
Cosmos 1814 Rocket 3.9 06:15:34 10° SSW 06:20:46 78° WNW 06:25:58 10° NNE
Cosmos 2237 Rocket 2.2 06:16:42 10° SSW 06:22:23 85° WNW 06:28:08 10° NNE
Cosmos 1441 Rocket 3.9 06:19:30 10° S 06:23:24 63° E 06:27:22 10° NNE
Meteor 1-15 Rocket 4.4 06:19:51 10° NNW 06:25:41 61° W 06:31:29 10° S
Aureole 2 Rocket 2.4 06:22:14 10° SSW 06:25:49 62° WNW 06:29:06 10° NNE
Cosmos 1666 3.9 06:25:08 10° NW 06:28:10 22° W 06:31:10 10° SW
Cosmos 1515 3.9 06:24:23 10° S 06:28:14 78° E 06:32:06 10° N
Meteor 2-4 Rocket 4.0 06:23:22 10° SW 06:28:40 44° WNW 06:33:53 10° N
ATLAS 5 CENTAUR R/B 2.6 06:23:30 10° NW 06:29:20 54° WSW 06:35:39 10° SSE
Cosmos 405 Rocket 3.0 06:25:42 10° SSW 06:29:39 50° WNW 06:33:35 10° N
Cosmos 371 Rocket 3.7 06:25:02 10° S 06:29:50 70° ESE 06:34:43 10° NNE
Cosmos 2297 4.0 06:24:59 10° NNW 06:30:46 77° ENE 06:36:29 10° SSE
USA 215 4.1 06:27:12 10° S 06:32:36 27° SW 06:38:03 10° WNW
Cosmos 2366 rocket 4.1 06:26:59 10° NNW 06:33:16 64° W 06:39:32 10° S
Okean 2 3.7 06:29:20 10° SSW 06:33:22 48° WNW 06:37:26 10° N
Cosmos 332 Rocket 3.8 06:28:37 10° SSW 06:33:32 84° WNW 06:38:28 10° NNE
Geosat 4.1 06:28:42 10° SSE 06:33:44 85° ENE 06:38:47 10° NNW
